YEAR,MONTH,DAY,HOUR,MINUTE,LATITUDE,LONGITUDE,WDIR,WSPD_MPS,WGUST_MPS,WSPD_SD,WDIR_SD,ATMP_C,RH_PCT,APRES_MB,WTMP_C,PITCH,ROLL,VOLT,SOLAR_RAD,RELEASE_STATUS
2009,8,22,23,0,70.37,-146.017,292,0.4,1.1,0.3,48,7,87,1003,8.8,-5,-2,13.4,488.5,0
2009,8,23,0,0,70.373,-146.035,137,2.4,3.4,0.6,80,6.2,94,1003,7,-4,-2,13.4,206.6,0
2009,8,23,1,0,70.373,-146.035,76,5,5.7,0.3,23,6.1,93,1002,5.8,-2,-6,14,326.5,0
2009,8,23,2,0,70.373,-146.033,82,5.2,5.8,0.3,30,6,93,1002,5.8,-10,1,13.4,319.6,0
2009,8,23,3,0,70.366,-146.037,93,4.7,5.7,0.4,34,6,94,1002,5.6,-3,-4,13.2,93.6,0
2009,8,23,4,0,70.375,-146.028,66,2.1,2.7,0.2,34,5.9,94,1002,5.7,-4,1,13,55.6,0
2009,8,23,5,0,70.375,-146.028,104,0.9,1.4,0.2,32,6,93,1003,5.6,-11,-1,12.9,33.9,0
2009,8,23,6,0,70.373,-146.045,80,2.3,2.8,0.4,28,6.3,92,1003,5.6,-16,0,12.8,7,0
2009,8,23,7,0,70.372,-146.038,157,1.5,1.7,0.1,20,6.8,89,1003,5.5,-1,1,12.8,0,0
2009,8,23,8,0,70.371,-146.044,110,1.6,1.7,0.1,18,7.2,87,1003,5.5,-3,-1,12.8,0,0
2009,8,23,9,0,70.371,-146.032,239,6.7,7.6,0.4,25,9.5,74,1003,5.5,-5,-6,12.7,0,0
2009,8,23,10,0,70.37,-146.045,260,5.3,6.1,0.4,41,8.1,82,1004,5.6,-4,-4,12.7,0,0
2009,8,23,11,0,70.372,-146.032,260,4.6,5.2,0.3,25,7.5,86,1005,5.4,1,-4,12.7,0,0
2009,8,23,12,0,70.376,-146.056,257,3.2,3.6,0.2,18,7,90,1005,5.5,-1,-9,12.7,0,0
2009,8,23,13,0,70.373,-146.044,250,4.4,4.9,0.3,25,7.1,91,1006,5.5,-1,-6,12.7,0.2,0
2009,8,23,14,0,70.374,-146.037,241,3.6,4.2,0.2,23,6.6,93,1006,5.4,-4,-4,12.7,7,0
2009,8,23,15,0,70.372,-146.037,217,3.4,3.8,0.2,18,6.5,93,1007,5.3,-3,-6,12.7,24.4,0
2009,8,23,16,0,70.375,-146.041,195,3.5,4,0.2,21,6.6,94,1007,5.5,1,-11,12.7,76.1,0
2009,8,23,17,0,70.372,-146.042,212,2.9,3.2,0.2,20,6.6,91,1008,5.5,-4,1,12.8,119.3,0
2009,8,23,18,0,70.372,-146.042,226,2.3,2.6,0.1,17,6.6,91,1008,5.5,-2,2,12.8,133.1,0
2009,8,23,19,0,70.368,-146.045,258,2.1,2.4,0.1,21,6.2,93,1008,5.6,-5,-4,13.1,290.8,0
2009,8,23,20,0,70.373,-146.05,301,2.1,2.4,0.1,18,6,93,1009,5.7,-2,-4,13.6,400.2,0
2009,8,23,21,0,70.372,-146.043,326,3.6,4.1,0.2,16,6.2,94,1009,5.8,-1,-4,13.6,482.4,0
2009,8,23,22,0,70.371,-146.037,346,4.9,5.7,25.9,25,6,94,1009,5.6,-5,-3,13.5,525.9,0
2009,8,23,23,0,70.372,-146.043,359,6.7,7.9,0.6,42,5,96,1009,5.6,-6,-5,13.4,505.9,0
2009,8,24,0,0,70.371,-146.045,359,6.8,8,0.6,45,4.9,95,1008,5.4,18,-3,13.5,352.4,0
2009,8,24,1,0,70.376,-146.01,21,6.8,7.9,0.5,37,4.6,98,1008,5.5,-11,-4,13.5,357.3,0
2009,8,24,2,0,70.37,-146.04,20,7.3,8.8,0.8,45,4.8,95,1008,5.2,9,-17,13.5,336.6,0
2009,8,24,3,0,70.374,-146.03,28,7.1,8.6,0.7,38,4.8,95,1008,5,-19,-14,13.5,236.6,0
2009,8,24,4,0,70.372,-146.06,38,7.5,8.8,0.7,40,4.4,97,1008,5,-4,-1,13.1,44.6,0
2009,8,24,5,0,70.376,-146.058,24,8.7,10.4,0.8,41,4.3,97,1007,5,10,-5,12.9,47.6,0
2009,8,24,6,0,70.371,-146.049,31,9.7,11.2,0.9,44,4.3,97,1006,5.1,-2,3,12.8,4.5,0
2009,8,24,7,0,70.375,-146.053,35,9.7,11.6,1,45,4.1,95,1006,5.2,1,3,12.8,0,0
2009,8,24,8,0,70.375,-146.053,40,9,11.2,1,45,4.4,95,1005,5.5,-3,-6,12.7,0,0
2009,8,24,9,0,70.371,-146.026,45,9.3,11.5,0.9,41,4.4,96,1004,5.6,-20,-10,12.7,0,0
2009,8,24,10,0,70.368,-146.034,42,10,12,1.1,42,3.9,100,1004,5.5,-16,-3,12.7,0,0
2009,8,24,11,0,70.372,-146.035,48,9.4,11.1,1,41,3.8,100,1003,5.5,3,0,12.7,0,0
2009,8,24,12,0,70.373,-146.043,47,10.5,12.5,1,41,3.4,100,1002,5.4,-14,-1,12.7,409.6,0
2009,8,24,13,0,70.373,-146.043,48,9,10.8,0.8,45,3.5,100,1002,5.3,-14,-13,12.7,0.4,0
2009,8,24,14,0,70.374,-146.039,52,9.6,11.3,0.9,44,3.4,100,1001,5.3,-17,-9,12.6,7.4,0
2009,8,24,15,0,70.372,-146.035,59,8.6,10.3,0.8,45,2.9,100,1000,5.2,-26,-15,12.6,22.6,0
2009,8,24,16,0,70.381,-146.076,64,6.1,7.3,0.7,41,3.2,100,1000,5.2,-20,1,12.6,43.5,0
2009,8,24,17,0,70.373,-146.043,76,4.1,4.7,0.4,48,3.7,100,1000,5.4,9,-1,12.6,47.3,0
2009,8,24,18,0,70.375,-146.046,144,2.7,3.3,0.3,40,4.7,100,1000,5.5,-5,-6,12.7,85,0
2009,8,24,19,0,70.373,-146.026,203,4.3,5.8,0.6,34,5.1,100,1001,5.6,-17,-12,12.7,101.2,0
2009,8,24,20,0,70.369,-146.041,232,5.6,6.7,0.6,47,5.5,100,1001,5.7,-9,-12,12.7,70.8,0
2009,8,24,21,0,70.371,-146.038,239,6.8,8.1,0.8,49,6,96,1001,5.7,-2,-7,13.2,492.4,0
2009,8,24,22,0,70.371,-146.042,248,3.7,4.3,0.3,41,6.2,95,1002,5.8,-10,5,13.3,329.9,0
2009,8,24,23,0,70.372,-146.038,281,2.9,3.9,0.4,34,6,94,1002,5.8,0,7,13.6,280,0
2009,8,25,0,0,70.369,-146.034,281,3.2,4,0.4,21,6.3,93,1003,5.8,-6,-1,13.6,382.3,0
2009,8,25,1,0,70.371,-146.031,270,3.5,4.1,0.3,25,6.5,90,1003,5.6,3,-10,13.6,310.6,0
2009,8,25,2,0,70.371,-146.036,263,4.1,5,0.3,23,6.4,90,1003,5.3,-4,0,13.4,139.5,0
2009,8,25,3,0,70.372,-146.043,233,1.6,1.9,0.2,25,6.4,90,1004,5.2,-10,0,13.4,153.5,0
2009,8,25,4,0,70.369,-146.048,354,1,1.2,0.1,20,6.3,88,1004,5.3,-6,4,13.1,71.9,0
2009,8,25,5,0,70.379,-146.022,278,1.2,1.6,0.2,17,5.9,91,1005,5.4,4,-7,13,43.8,0
2009,8,25,6,0,70.372,-146.046,291,1.6,1.8,0.1,17,6,90,1006.3,5.5,-5,-1,13,6.8,0
2009,8,25,7,0,70.371,-146.048,287,1.4,1.8,0.2,14,5.7,93,1005,5.6,-6,-4,12.8,0,0
2009,8,25,8,0,70.374,-146.047,6,0.7,1.1,0.1,17,5.6,93,1006,5.7,-1,-3,12.8,0,0
2009,8,25,9,0,70.377,-146.049,79,0.4,0.8,0.2,21,5.6,91,1006,5.8,-2,-5,12.7,0,0
2009,8,25,10,0,70.381,-146.023,58,0.3,0.5,0.1,16,5.5,91,1006,5.8,-7,-4,12.7,0.1,0
2009,8,25,11,0,70.372,-146.038,54,1,1.2,0.1,16,5.4,93,1006,5.8,-3,-4,12.7,0,0
2009,8,25,12,0,70.376,-146.02,85,1.4,1.6,0.1,16,5.3,94,1007,5.6,-4,-2,12.6,0,0
2009,8,25,13,0,70.372,-146.046,102,1.7,2,0.1,16,5.2,93,1007,5.6,0,-4,12.6,0,0
2009,8,25,14,0,70.374,-146.047,95,1.4,1.6,0.1,14,5.2,93,1007,5.6,2,-1,12.6,4.5,0
2009,8,25,15,0,70.372,-146.04,100,2.3,2.7,0.2,18,5.2,91,1007,5.6,-1,-3,12.6,23.3,0
2009,8,25,16,0,70.373,-146.047,103,4.1,4.4,0.2,14,4.9,95,1007,5.7,-6,-5,12.6,27.5,0
2009,8,25,17,0,70.376,-146.041,106,3.1,3.5,0.2,13,4.7,95,1007,5.8,-1,-3,12.7,40.6,0
2009,8,25,18,0,70.371,-146.043,102,2,2.4,0.2,14,4.8,95,1007,5.8,-2,-7,12.6,53.7,0
2009,8,25,19,0,70.372,-146.04,75,0.1,0.4,0.1,10,4.6,95,1008,5.9,-5,4,12.6,59.6,0
2009,8,25,20,0,70.372,-146.038,288,2.1,2.6,0.2,14,4.6,96,1008,5.8,-2,0,12.7,90.8,0
2009,8,25,21,0,70.373,-146.036,353,5.4,7.3,1.3,17,4.3,97,1008,5.6,-1,-4,12.7,59.8,0
2009,8,25,22,0,70.372,-146.04,352,6.2,7.2,0.4,34,4,98,1008,5.6,2,-3,12.7,87.2,0
2009,8,25,23,0,70.375,-146.038,359,6.9,8,0.6,52,3.8,97,1008,5.4,-12,8,12.6,69,0
2009,8,26,0,0,70.371,-146.036,16,5.5,6.6,0.5,48,3.5,97,1009,4.7,-19,-2,12.6,71.9,0
2009,8,26,1,0,70.373,-146.046,37,4.6,5.3,0.4,47,2.9,96,1009,4.8,7,-6,12.6,62.7,0
2009,8,26,2,0,70.371,-146.038,7,3.1,3.6,0.4,40,2.6,96,1010,4.7,2,-1,12.6,93.2,0
2009,8,26,3,0,70.371,-146.039,25,1.5,2.1,0.3,32,2,97,1010,4.5,3,1,12.6,61.8,0
2009,8,26,4,0,70.37,-146.045,304,0.7,1.2,0.2,31,2,97,1010,4.5,9,-2,12.6,19.8,0
2009,8,26,5,0,70.375,-146.034,306,2.5,3.1,0.3,25,2.3,96,1011,4.7,0,-5,12.6,20,0
2009,8,26,6,0,70.372,-146.04,296,4.3,5.3,0.5,28,2.8,97,1011,4.7,2,-8,12.6,820.2,0
2009,8,26,7,0,70.37,-146.019,301,5.2,6,0.4,37,2.4,97,1011,4.7,5,-4,12.6,0,0
2009,8,26,8,0,70.373,-146.042,311,5,5.7,0.4,41,5,97,1011,4.7,-14,5,9.4,0,0
2009,8,26,9,0,70.375,-146.049,312,4.2,5,0.4,41,2.6,97,1012,4.7,11,-7,12.6,0,0
2009,8,26,10,0,70.361,-146.057,315,4,4.6,0.3,38,2.8,95,1012,4.7,4,-7,12.6,0.2,0
2009,8,26,11,0,70.374,-146.04,316,3.7,4.5,0.4,37,3,94,1013,4.7,5,-1,12.5,0.2,0
2009,8,26,12,0,70.378,-146.044,357,4.2,5,0.4,34,3,96,1013,4.6,-8,3,12.6,0,0
2009,8,26,13,0,70.375,-146.047,311,4.1,5,0.3,38,2.9,97,1013,4.6,-5,-7,12.6,0,0
2009,8,26,14,0,70.372,-146.042,319,4,4.8,0.4,32,2.9,97,1013,4.6,1,-1,12.5,5.3,0
2009,8,26,15,0,70.375,-146.034,313,3.4,4.6,0.5,34,2.8,98,1013,4.5,-2,-5,12.5,24.6,0
2009,8,26,16,0,70.375,-146.045,312,3.4,4,0.3,28,2.9,97,1013,4.5,-1,1,12.6,41.9,0
2009,8,26,17,0,70.371,-146.038,301,3.3,4,0.4,30,2.9,98,1014,4.6,7,-2,12.6,77.9,0
2009,8,26,18,0,70.369,-146.03,306,2.7,4,0.4,31,2.8,98,1014,4.6,-3,0,12.6,63.3,0
2009,8,26,19,0,70.372,-146.039,309,3.9,4.5,0.3,25,23.2,100,1014,4.5,3,-8,12.6,102.4,0
2009,8,26,20,0,70.368,-146.042,323,4.1,4.8,0.4,31,2.8,99,1014,4.7,0,-5,12.7,193.5,0
2009,8,26,21,0,70.368,-146.055,328,4,4.5,0.3,34,2.9,97,1014,4.6,-2,-5,12.9,267.9,0
2009,8,26,22,0,70.372,-146.041,347,2.4,3.3,0.4,28,3.1,95,1015,4.3,-8,-4,13,264.6,0
2009,8,26,23,0,70.373,-146.036,1,2.6,3.3,0.3,17,3.2,94,1015,4.4,-8,0,13,163.7,0
2009,8,27,0,0,70.371,-146.036,16,3.1,3.9,0.3,14,3.3,92,1015,4.2,1,-5,13,259.7,0
2009,8,27,1,0,70.373,-146.036,23,3.3,3.9,0.2,14,3.3,92,1015,4.1,-7,0,13.2,236.7,0
2009,8,27,2,0,70.372,-146.034,35,2.9,3.6,0.3,16,3.2,92,1015,3.9,-1,-1,13,163.2,0
2009,8,27,3,0,70.373,-146.036,51,3.3,3.9,0.2,14,3.2,93,1015,3.7,-1,-6,12.9,99,0
2009,8,27,4,0,70.375,-146.047,55,3.7,4.4,0.3,14,3.2,94,1015,3.8,0,0,19.2,59.6,0
2009,8,27,5,0,70.374,-146.066,71,3.7,4.4,0.4,17,2.9,96,1015,3.8,-2,-7,12.7,11.9,0
2009,8,27,6,0,70.36,-146.072,56,3.7,4.7,0.4,18,2.9,96,1015,3.9,2,-2,12.6,2.1,0
2009,8,27,7,0,70.374,-146.05,52,3.8,4.3,0.3,17,3,95,1015,4.2,-4,-3,12.6,0,0
2009,8,27,8,0,70.372,-146.05,52,5,5.7,0.4,24,3.2,93,1015,4.4,4,-4,12.6,0,0
2009,8,27,9,0,70.376,-146.048,54,5.3,6,0.4,30,3.1,93,1015,4.3,4,-3,12.5,0,0
2009,8,27,10,0,70.371,-146.042,49,5.4,6.3,0.5,31,3.1,95,1015,4.2,-6,-2,12.6,0,0
2009,8,27,11,0,70.372,-146.031,58,5.9,7.2,0.6,37,3,97,1015,4.1,-6,25,12.6,0,0
2009,8,27,12,0,70.368,-146.018,65,5.6,7.6,0.7,37,3.1,96,1016,4,-1,2,12.5,0,0
2009,8,27,13,0,70.369,-146.022,51,5.2,6.3,0.6,37,3.2,96,1016,3.7,0,-1,12.5,0,0
2009,8,27,14,0,70.371,-146.048,40,5.9,6.7,0.4,34,3,97,1016,3.7,-1,-10,12.5,4.8,0
2009,8,27,15,0,70.374,-146.034,42,6.9,8.3,0.6,35,2.9,98,1016,3.9,-3,-10,12.6,20.5,0
2009,8,27,16,0,70.372,-146.054,64,6.5,7.8,0.7,38,3.4,95,1016,4,-14,8,12.6,51.7,0
2009,8,27,17,0,70.373,-146.044,48,7,7.9,0.6,38,3.3,98,1016,4.1,7,1,12.6,92.2,0
2009,8,27,18,0,70.372,-146.036,59,6.5,7.7,0.7,37,3.7,97,1016,4.6,0,-2,12.6,92.1,0
2009,8,27,19,0,70.369,-146.042,59,6.8,7.9,0.8,38,24.1,97,1016,4.6,-7,-4,12.6,101.5,0
2009,8,27,20,0,70.374,-146.052,61,6.6,8.1,0.6,37,3.8,96,1016,4.7,-5,-7,12.7,218.7,0
2009,8,27,21,0,70.372,-146.041,68,7.8,8.9,0.7,41,3.8,94,1016,4.6,2,-4,12.8,257.1,0
2009,8,27,22,0,70.373,-146.031,66,6.9,8.1,0.6,37,3.9,93,1016,4.6,-13,4,12.9,251,0
2009,8,27,23,0,70.371,-146.04,61,7.2,8.3,0.7,47,3.7,95,1016,4.6,-15,-5,12.9,242,0
2009,8,28,0,0,70.368,-146.033,61,7.6,8.8,0.7,42,3.7,94,1016,4.8,-14,0,13,263.7,0
2009,8,28,1,0,70.376,-146.041,62,8.2,9.8,0.8,42,3.8,94,1015,4.8,1,-1,13,232.9,0
2009,8,28,2,0,70.373,-146.042,71,9.2,10.8,0.9,42,3.6,93,1015,4.8,-10,-3,12.9,95.4,0
2009,8,28,3,0,70.376,-146.04,65,9.1,10.9,0.8,44,3.5,95,1014,4.4,2,-5,12.7,60.2,0
2009,8,28,4,0,70.371,-146.044,62,9,10.8,0.8,40,3.4,97,1014,5.2,-1,-3,12.6,21.4,0
2009,8,28,5,0,70.371,-146.048,68,9.4,12,0.9,42,3.4,97,1013,5.3,-28,-6,12.6,12.2,0
2009,8,28,6,0,70.372,-146.033,75,10.4,12.4,1,41,3.1,98,1013,5.4,-1,-3,12.6,1.4,0
2009,8,28,7,0,70.376,-146.036,68,10.3,11.8,0.9,44,3.4,98,1012,5.6,-29,-14,12.5,0.1,0
2009,8,28,8,0,70.369,-146.037,66,10.5,12.5,1,42,3.5,98,1011,5.7,-17,-16,12.5,0,0
2009,8,28,9,0,70.37,-146.033,58,9.4,10.9,0.9,40,3.3,100,1011,5.6,13,0,12.5,0,0
2009,8,28,10,0,70.375,-146.032,56,9.4,11.3,0.9,42,2.9,100,1010,5.6,-18,-1,12.5,0.1,0
2009,8,28,11,0,70.384,-146.067,51,8.8,11.2,0.9,44,2.6,100,1009,5.5,-28,-13,12.5,0.1,0
2009,8,28,12,0,70.372,-146.04,51,8.8,10.4,0.8,42,2.6,100,1008,5.4,-6,-12,12.5,0,0
2009,8,28,13,0,70.381,-146.042,45,8,9.7,0.8,41,2.6,100,1008,5.5,12,-16,12.5,0.1,0
2009,8,28,14,0,70.373,-146.038,40,7.2,8.6,0.7,41,2.4,100,1007,5.6,-25,6,12.5,1.7,0
2009,8,28,15,0,70.377,-146.052,42,6.1,7,0.6,42,2.5,100,1007,5.6,0,-11,12.5,8.8,0
2009,8,28,16,0,70.374,-146.039,38,5,6.2,0.5,37,2.3,100,1006,5.6,2,-13,12.5,21.9,0
2009,8,28,17,0,70.373,-146.044,10,4.5,5.2,0.4,34,2.3,100,1006,5.6,-2,0,12.5,22.3,0
2009,8,28,18,0,70.373,-146.045,25,4.9,5.8,0.5,34,1.9,100,1005,5.6,5,-7,12.5,36.3,0
2009,8,28,19,0,70.372,-146.034,328,2.6,3.4,0.3,32,1.8,100,1005,5.7,5,-5,12.5,41.4,0
2009,8,28,20,0,70.375,-146.031,289,4.5,5.2,0.4,34,2.2,100,1005,5.7,0,-6,12.6,106.9,0
2009,8,28,21,0,70.373,-146.031,267,4.6,5.6,0.4,35,2.7,98,1005,5.7,3,-8,12.6,88.1,0
2009,8,28,22,0,70.372,-146.046,267,5.6,6.7,0.5,42,1.3,71,1005,5.7,10,-17,12.6,104.9,0
2009,8,28,23,0,70.373,-146.038,253,6.3,7.4,0.5,44,2.4,98,1006,5.5,0,5,12.5,79.2,0
2009,8,29,0,0,70.371,-146.037,260,7.1,8.3,0.6,48,2.6,100,1006,5.4,3,-11,12.6,75.4,0
2009,8,29,1,0,70.372,-146.043,267,7.2,8.1,0.6,47,2.6,99,1006,5.3,-7,-5,12.6,63,0
2009,8,29,2,0,70.371,-146.045,263,7.5,8.7,0.7,47,2.8,99,1007,5.3,1,-5,12.5,57.6,0
2009,8,29,3,0,70.371,-146.045,268,7.2,8.3,0.7,49,2.8,99,1007,5.2,-15,1,12.5,41.5,0
2009,8,29,4,0,70.374,-146.037,285,6.4,7.7,0.7,48,2.9,98,1007,5.2,12,-3,12.5,17.2,0
2009,8,29,5,0,70.374,-146.037,264,6.3,7.5,0.6,45,2.8,97,1008,5,-21,-1,12.5,4.2,0
2009,8,29,6,0,70.371,-146.041,263,6.8,7.8,0.6,45,2.6,97,1008,3.8,4,0,12.5,0.8,0
2009,8,29,7,0,70.372,-146.041,265,6.9,8.1,0.6,49,2.5,99,1008,3.6,-6,-14,12.5,0,0
2009,8,29,8,0,70.376,-146.042,268,7,8,0.6,47,2.5,98,1009,3.2,-13,8,12.5,0.1,0
2009,8,29,9,0,70.364,-146.055,277,6.8,8.2,0.7,48,2.5,98,1009,2.9,-7,-15,12.5,0.2,0
2009,8,29,10,0,70.372,-146,285,7,8.3,0.7,49,2.5,96,1009,3,10,-6,12.5,0,0
2009,8,29,11,0,70.372,-146,287,6.5,7.7,0.7,48,2.1,99,1010,3,-1,-9,12.5,0,0
2009,8,29,12,0,70.37,-146.031,281,5.4,6.6,0.7,47,2.2,97,1010,3,0,-11,12.5,0,0
2009,8,29,13,0,70.375,-146.04,274,4.9,5.7,0.4,47,2.3,96,1011,3,-7,6,12.5,0,0
2009,8,29,14,0,70.375,-146.04,272,5.2,6.4,0.6,44,2.3,95,1011,3,1,-3,12.5,0.8,0
2009,8,29,15,0,70.369,-146.04,264,5.7,6.6,0.6,45,2.2,94,1011,3.1,-15,-10,12.5,10,0
2009,8,29,16,0,70.371,-146.041,254,5.9,7.4,0.9,45,2.2,93,1011,3.2,6,-11,12.5,14.2,0
2009,8,29,17,0,70.373,-146.043,254,4.6,6.2,0.7,45,2.4,93,1011,3.3,19,-4,12.5,22,0
2009,8,29,18,0,70.372,-146.041,239,5.2,6.5,0.7,45,2.3,92,1011,3.3,-6,-7,12.5,39,0
2009,8,29,19,0,70.373,-146.046,271,3.9,4.8,0.4,38,2.3,92,1011,3.3,3,-7,12.5,69.7,0
2009,8,29,20,0,70.371,-146.037,285,4.5,5.4,0.4,35,2.2,94,1011,3.3,2,2,12.5,100.8,0
2009,8,29,21,0,70.371,-146.04,277,2.4,3,0.3,34,2.3,95,1011,3.3,-5,-8,12.6,190.8,0
2009,8,29,22,0,70.37,-146.044,289,1.1,1.5,0.2,32,2.4,95,1010,3.4,-6,-5,12.7,229.3,0
2009,8,29,23,0,70.369,-146.031,114,0,0.3,0.1,16,2.5,96,1010,3.5,-11,4,12.6,206.1,0
2009,8,30,0,0,70.373,-146.04,73,1.7,2,0.2,27,2.2,98,1009,3.5,-8,-3,12.6,122.2,0
2009,8,30,1,0,70.371,-146.039,71,2.8,3.5,0.3,20,2.2,100,1008,3.5,-1,-1,12.6,161.1,0
2009,8,30,2,0,70.371,-146.047,64,3.5,4.7,0.4,17,2.2,99,1007,3.6,-2,-2,12.6,101.1,0
2009,8,30,3,0,70.375,-146.031,75,5.4,6.6,0.6,23,2.2,94,1006,3.5,-4,-2,12.5,49.7,0
2009,8,30,4,0,70.373,-146.042,64,7.1,8.1,0.6,32,2.2,96,1005,3.6,-5,-6,12.5,23.3,0
2009,8,30,5,0,70.371,-146.044,61,7.3,8.5,0.6,31,2.5,96,1005,4,10,-1,12.5,5.4,0
2009,8,30,6,0,70.371,-146.048,55,6.2,7.1,0.5,32,2.7,95,1004,4.2,4,-7,12.5,0.3,0
2009,8,30,7,0,70.371,-146.037,62,7.1,8.4,0.7,38,2.8,98,1004,4.3,-13,-1,12.5,0,0
2009,8,30,8,0,70.367,-146.047,75,9,9.9,416.8,44,8.2,100,1002.7,4.2,-21,-2,12.5,38.9,0
2009,8,30,9,0,70.367,-146.047,80,7.8,22.1,0.8,45,3,98,1003,4.3,3,-3,12.5,0.4,0
2009,8,30,10,0,70.374,-146.053,85,9.7,11.3,0.8,42,3,98,1002,4.4,7,-14,12.5,0.3,0
2009,8,30,11,0,70.374,-146.053,93,8.5,10.4,0.9,41,3.1,97,1002,4.5,7,-3,12.5,0.5,0
2009,8,30,12,0,70.375,-146.058,69,5.5,6.4,0.5,40,3.4,98,1002,4.6,9,-8,12.4,0,0
2009,8,30,13,0,70.379,-146.079,35,6.6,7.4,0.6,34,3,99,1002,4.7,-2,-1,12.5,0.1,0
2009,8,30,14,0,70.377,-146.045,31,9.8,11.8,1,45,1.2,100,1003,4.8,-27,9,12.5,1.6,0
2009,8,30,15,0,70.368,-146.026,23,9.6,11.2,0.9,41,0.6,100,1005,4.6,-6,-7,12.4,6.5,0
2009,8,30,16,0,70.375,-146.044,13,8.1,9.3,0.8,44,-0.1,100,1006,4.4,-3,6,12.4,17.4,0
2009,8,30,17,0,70.375,-146.037,13,7.7,9.2,0.8,47,-0.4,100,1007,4.6,-16,-19,12.5,47,0
2009,8,30,18,0,70.369,-146.049,6,7.6,9.1,0.8,37,-0.2,100,1008,4.8,-18,-7,12.4,64.8,0
2009,8,30,19,0,70.378,-146.05,350,6.5,8.3,0.8,40,0.2,98,1010,4.6,8,-4,12.6,168,0
2009,8,30,20,0,70.367,-146.041,335,5.9,7,0.5,41,0.6,91,1011,4.5,-5,-25,12.5,200.1,0
2009,8,30,21,0,70.373,-146.04,330,6.6,8.5,0.8,45,1,87,1012,4.5,-11,-1,12.7,521.4,0
2009,8,30,22,0,70.37,-146.044,328,5.3,7.2,0.6,40,0.7,89,1013,5.6,-1,3,12.8,260.8,0
2009,8,30,23,0,70.376,-146.022,318,4.1,4.8,0.4,40,0.3,94,1014,4.2,-4,4,12.7,196.6,0
2009,8,31,0,0,70.376,-146.022,319,4.8,6.2,0.7,41,0.8,86,1014,4.2,-1,2,12.7,196.3,0
2009,8,31,1,0,70.371,-146.042,306,5.4,6.5,0.5,45,0.6,82,1015,4.8,-13,-6,12.7,187.3,0
2009,8,31,2,0,70.374,-146.038,304,4.1,5.7,0.6,42,0.5,83,1015,5.2,-13,5,12.7,129.7,0
2009,8,31,3,0,70.372,-146.032,318,4.2,5.5,0.6,38,0.2,81,1015,4.7,-12,-3,12.6,65.8,0
2009,8,31,4,0,70.372,-146.045,312,3.5,4.7,0.7,28,-0.1,82,1015,4.7,-1,-3,12.5,31.5,0
2009,8,31,5,0,70.379,-146.055,326,2.9,3.7,0.3,28,-0.2,86,1015,4.6,9,-6,12.5,11.1,0
2009,8,31,6,0,70.371,-146.046,27,1.9,2.6,0.3,23,-0.3,85,1015,4.6,-1,-4,12.4,0.1,0
2009,8,31,7,0,70.365,-146.04,13,1.5,2.1,0.3,25,-0.4,80,1015,4.7,-8,-4,12.4,0,0
2009,8,31,8,0,70.371,-146.045,32,3.5,5.5,1,16,-0.6,81,1014,4.8,1,-8,12.4,0,0
2009,8,31,9,0,70.377,-146.035,45,5.2,6.8,0.5,23,-0.4,83,1013,4.8,2,-1,12.4,0,0
2009,8,31,10,0,70.37,-146.033,58,5.6,6.8,0.7,32,-0.3,83,1013,4.9,-5,-1,12.4,0,0
2009,8,31,11,0,70.372,-146.044,62,6.8,8,0.6,38,-0.1,86,1012,4.9,9,-1,12.4,0,0
2009,8,31,12,0,70.372,-146.044,58,8,9.5,0.8,32,-0.2,86,1011,5,-8,-2,12.4,0,0
2009,8,31,13,0,70.371,-146.039,66,8.6,10.8,1,38,-0.2,87,1010,5.1,-14,-13,12.4,0,0
2009,8,31,14,0,70.372,-146.04,62,10.1,11.8,1,42,0.1,88,1009,5,3,-17,12.4,3.1,0
2009,8,31,15,0,70.37,-146.038,71,10.1,12.3,1.1,41,0.3,89,1008,4.8,-12,5,12.4,23.5,0
2009,8,31,16,0,70.372,-146.046,66,11.1,13.1,1.1,45,0.7,90,1007,4.6,-11,5,12.5,95,0
2009,8,31,17,0,70.365,-146.01,69,11.9,14,1.1,45,0.7,90,1006,4.7,-16,-24,12.5,115.5,0
2009,8,31,18,0,70.373,-146.046,66,11.9,14.2,1.1,47,0.7,92,1005,4.8,4,-11,12.6,164.2,0
2009,8,31,19,0,70.373,-146.036,71,11.5,14.1,1.3,48,1.1,93,1005,4.8,-10,-6,12.7,266.5,0
2009,8,31,20,0,70.37,-146.043,75,12.2,14.5,1.2,51,1.1,91,1004,4.4,-19,-8,12.8,235.1,0
2009,8,31,21,0,70.371,-146.042,71,12.2,14.9,1.3,45,1,93,1003,4.3,6,-9,12.9,254.5,0
2009,8,31,22,0,70.371,-146.042,72,11.6,14.1,1.2,47,1.6,92,1003,4,-21,-14,12.8,192.9,0
2009,8,31,23,0,70.372,-146.059,71,11.7,14.3,1.3,48,1.6,93,1002,3.9,-6,-9,12.8,174.4,0
2009,9,1,0,0,70.375,-146.038,75,11.8,14.6,1.3,47,1.7,94,1001,3.8,-8,-5,12.7,73.6,0
2009,9,1,1,0,70.367,-146.029,68,11.2,13.4,1.3,45,1.9,95,1001,3.7,-21,-2,12.6,35,0
2009,9,1,2,0,70.37,-146.044,66,11.1,13.3,1.1,44,2,98,1000,4.3,-5,2,12.5,23,0
2009,9,1,3,0,70.37,-146.043,71,10.6,12.5,1,44,2.4,98,1000,4.7,-21,-9,12.5,19.5,0
2009,9,1,4,0,70.37,-146.043,71,10.8,12.5,1,48,2.6,99,1000,4.8,-5,9,12.5,15.4,0
2009,9,1,5,0,70.376,-146.031,72,10.3,5.4,52.6,45,2.8,99,999,4.8,-32,9,12.5,4.4,0
2009,9,1,6,0,70.374,-146.054,72,10.1,12.1,0.9,47,2.9,99,999,4.6,-7,9,12.4,0.6,0
2009,9,1,7,0,70.371,-146.038,72,10,12.2,1.1,44,3.1,99,999,4.5,-18,1,12.4,0.1,0
2009,9,1,8,0,70.374,-146.051,76,10.4,11.9,0.9,42,3.2,98,999,4.4,-15,-18,12.4,0.1,0
2009,9,1,9,0,70.374,-146.051,79,9.8,12.1,0.9,45,3.4,98,999,4.4,12,-5,12.4,0,0
2009,9,1,10,0,70.371,-146.034,80,9.7,11.9,0.9,42,3.4,98,999,4.5,-7,1,12.4,0,0
2009,9,1,11,0,70.371,-146.037,86,9.3,11.1,0.8,47,3.6,98,999,4.6,8,3,12.4,0,0
2009,9,1,12,0,70.371,-146.037,85,9.3,10.6,0.8,42,3.6,97,999,4.6,-11,-4,12.4,0,0
2009,9,1,13,0,70.377,-146.063,86,7.8,9.3,0.8,44,3.8,97,999,4.5,13,-1,12.4,0,0
2009,9,1,14,0,70.374,-146.037,85,7.5,8.8,0.7,41,3.8,97,999,4.5,-24,-3,12.4,1.6,0
2009,9,1,15,0,70.37,-146.048,93,6.9,8.2,0.7,38,3.9,97,999,4.5,-3,-4,12.4,15.6,0
2009,9,1,16,0,70.371,-146.034,96,5.8,6.4,0.5,40,4,96,1000,4.4,-7,4,12.4,66,0
2009,9,1,17,0,70.364,-146.007,113,3.5,4.2,0.3,35,4.3,96,1000,4.4,-4,-4,12.4,53.3,0
2009,9,1,18,0,70.368,-146.037,119,2.9,3.6,0.4,32,4.8,95,1001,4.4,7,-3,12.5,138.8,0
2009,9,1,19,0,70.369,-146.041,93,2,2.5,0.4,27,4.9,95,1001,4.4,-12,0,12.5,122.4,0
2009,9,1,20,0,70.374,-146.061,16,1,1.3,0.1,34,5.3,93,1002,4.5,1,2,12.7,395.9,0
2009,9,1,21,0,70.37,-146.048,47,1.7,2,0.2,32,5.1,93,1002,4.6,3,3,12.7,281.2,0
2009,9,1,22,0,70.372,-146.044,82,1.6,1.8,0.2,24,5.7,92,1003,4.6,7,-5,12.7,241.9,0
2009,9,1,23,0,70.37,-146.047,96,1.7,1.9,0.1,20,5.6,93,1003,4.8,-2,1,12.7,242.8,0
2009,9,2,0,0,70.373,-146.042,113,3,3.3,0.1,23,6.1,91,1004,4.6,2,-1,12.6,35.7,0
2009,9,2,1,0,70.376,-146.051,76,1.6,2.5,0.5,25,5.6,92,1003,4.9,-10,-5,12.8,173.7,0
2009,9,2,2,0,70.371,-146.047,103,3.7,4.2,0.3,17,5.8,92,1004,4.9,-4,-4,12.7,115.5,0
2009,9,2,3,0,70.372,-146.039,120,3.7,4.1,0.2,17,6,92,1004,4.8,-6,-2,12.6,73.8,0
2009,9,2,4,0,70.373,-146.037,113,3,3.3,0.1,23,6.1,91,1004,4.6,2,-1,12.6,35.7,0
2009,9,2,5,0,70.377,-146.042,114,2.9,3.3,0.2,23,6.4,90,1004,4.6,2,-6,12.5,6.7,0
2009,9,2,6,0,70.372,-146.047,113,4.3,4.7,0.2,21,6.7,89,1004,4.6,-1,-5,12.5,0,0
2009,9,2,7,0,70.372,-146.047,113,2.6,2.9,0.1,27,6.3,91,1005,4.6,-3,-8,12.5,0,0
2009,9,2,8,0,70.37,-146.042,179,2.8,4.2,1,31,6.1,93,1006,4.5,-1,-6,12.4,0,0
2009,9,2,9,0,70.374,-146.035,186,2.4,3.1,0.3,24,7.8,100,1006,4.5,-4,-6,12.4,0,0
2009,9,2,10,0,70.374,-146.037,336,1.3,1.8,0.3,14,7,88,1006,4.5,-2,-5,12.4,0,0
2009,9,2,11,0,70.372,-146.038,196,1.6,2,0.3,17,6.8,89,1006,4.4,0,-2,12.4,0,0
2009,9,2,12,0,70.371,-146.034,162,2.4,2.6,0.1,20,7,90,1006,4.6,-3,-2,12.4,0,0
2009,9,2,13,0,70.371,-146.034,185,3.1,3.6,0.3,16,6.5,91,1007,4.6,-4,-4,12.4,0,0
2009,9,2,14,0,70.373,-146.036,176,1.9,2.3,0.1,16,5.5,94,1007,4.6,-5,-5,12.4,3.1,0
2009,9,2,15,0,70.373,-146.036,193,1.7,2.2,0.2,14,5.4,95,1007,4.6,0,-4,12.4,23.5,0
2009,9,2,16,0,70.376,-146.056,219,2.9,3.3,0.2,10,4.9,97,1008,4.6,-2,-1,12.4,44,0
2009,9,2,17,0,70.372,-146.049,244,3.1,3.6,0.2,11,5.3,95,1008,4.6,-6,-1,12.5,106.9,0
2009,9,2,18,0,70.37,-146.05,227,3.4,3.8,0.2,18,5,94,1008,4.4,-2,-4,12.7,306.7,0
2009,9,2,19,0,70.371,-146.037,233,2.6,2.8,0.1,18,5.1,91,1008,4.2,-1,-4,12.8,342.7,0
2009,9,2,20,0,70.371,-146.041,234,1.6,1.8,0.1,11,5.4,90,1008,4.4,0,-4,12.9,392.4,0
2009,9,2,21,0,70.37,-146.042,342,0.3,0.5,0.2,8,5.8,85,1008,4.5,0,0,12.9,446.7,0
2009,9,2,22,0,70.373,-146.041,65,1.9,2.1,102.5,8,6.1,86,1009,4.8,-3,-4,12.9,410.3,0
2009,9,2,23,0,70.372,-146.042,78,2,2.7,0.4,13,5.6,90,1008,4.4,-3,-3,12.9,395.1,0
2009,9,3,0,0,70.372,-146.042,100,1.5,1.6,0.1,7,6.5,86,1008,5.1,-3,-4,13,354.7,0
2009,9,3,1,0,70.369,-146.046,78,1.8,2.3,0.2,7,5.9,90,1008,5.1,-4,-4,13,295.9,0
2009,9,3,2,0,70.372,-146.037,82,2.8,3.3,0.2,4,5.5,93,1008,5,-1,-3,12.9,153.2,0
2009,9,3,3,0,70.373,-146.051,78,2.5,2.7,0.1,6,5.2,96,1009,4.9,-3,-4,12.9,69.7,0
2009,9,3,4,0,70.376,-146.02,65,2.1,2.3,0.1,6,4.9,96,1009,4.7,-3,-3,12.7,40.1,0
2009,9,3,5,0,70.38,-146.056,102,2.8,3.2,0.2,4,2.8,95,1009,4.8,-3,-4,12.7,8,0
2009,9,3,6,0,70.37,-146.059,278,2.8,3.3,0.3,4,5.2,94,1010,4.7,-3,-4,12.7,0,0
2009,9,3,7,0,70.372,-146.045,313,3.4,3.9,0.3,6,5.2,96,1010,4.6,-2,-4,12.6,0,0
2009,9,3,8,0,70.372,-146.045,329,2.3,2.6,0.1,4,5,97,1010,4.6,-3,-3,12.6,0,0
2009,9,3,9,0,70.376,-146.039,325,2.6,3,0.1,4,5.1,97,1010,4.6,-2,-4,12.6,0,0
2009,9,3,10,0,70.372,-146.058,325,2.5,2.9,0.1,4,4.9,95,1010,4.6,-3,-4,12.6,0,0
2009,9,3,11,0,70.372,-146.039,17,1.3,1.5,0.1,6,4.9,94,1011,4.7,-2,-4,12.6,0,0
2009,9,3,12,0,70.376,-146.039,330,3.3,4.3,0.4,6,4.5,94,1011,4.3,-1,-4,12.6,0,0
2009,9,3,13,0,70.374,-146.036,35,0.7,0.9,0.1,20,4.1,96,1011,4,-5,-2,12.5,0,0
2009,9,3,14,0,70.374,-146.036,248,1.2,1.7,0.2,11,3.9,98,1012,4.1,-4,-2,12.5,1.3,0
2009,9,3,15,0,70.373,-146.042,265,1.9,2.1,0.1,7,4.1,98,1012,4.1,-1,-5,12.5,8.3,0
2009,9,3,16,0,70.373,-146.042,302,3.2,3.9,0.4,6,3.9,98,1012,4,-2,-3,12.5,36.1,0
2009,9,3,17,0,70.371,-146.038,78,1.5,1.8,0.2,11,3.9,98,1012,4,-2,-4,12.6,102.6,0
2009,9,3,18,0,70.371,-146.037,167,2.3,2.7,0.2,13,4.3,98,1012,4.1,0,-4,12.6,137.9,0
2009,9,3,19,0,70.366,-146.044,151,3,3.5,0.2,10,4.9,98,1011,4.1,-5,-2,12.6,173,0
2009,9,3,20,0,70.368,-146.041,160,1.9,2.3,0.1,10,5.6,94,1011,4.3,-3,-4,12.8,266.3,0
2009,9,3,21,0,70.371,-146.037,158,3.5,4,0.2,11,7,90,1010,4.4,-2,-4,13,292.5,0
2009,9,3,22,0,70.373,-146.045,193,4.8,5.3,0.2,11,7.2,89,1010,4.5,-5,-5,13,259.4,0
2009,9,3,23,0,70.371,-146.047,210,4.9,5.7,0.3,24,7.2,91,1009,4.6,2,-5,12.8,104,0
2009,9,4,0,0,70.37,-146.043,256,5.1,6,0.5,38,6.1,95,1010,4.7,-11,0,12.8,104.5,0